When you browse on this site, cookies collect data to enhance your experience and personalize the content and advertising you see.
Visit our Privacy Policy to learn more. By continuing to use the site, you agree to this use of cookies and data.
  • En España
  • Lista de países
  • Para 7 días
  • Temperatura del agua
  • Mapa Satelital
  • El tiempo en el mapa
  • Informadores
  • user-avatar
    Iniciar sesión

    Tiempo cada hora Tarim

    Hoy, 25 Junio, Martes

    Tiempo Temperatura Precipitaciones Viento Presión Humedad
    00:00 +33°C° 0 mm 1 mps 704 mmHg 37%
    01:00 +33°C° 0 mm 1 mps 703 mmHg 37%
    02:00 +32°C° 0 mm 1 mps 703 mmHg 37%
    03:00 +32°C° 0 mm 1 mps 702 mmHg 37%
    04:00 +32°C° 0 mm 1 mps 703 mmHg 36%
    05:00 +32°C° 0 mm 1 mps 703 mmHg 35%
    06:00 +32°C° 0 mm 1 mps 704 mmHg 34%
    07:00 +34°C° 0 mm 1 mps 704 mmHg 30%
    08:00 +37°C° 0 mm 2 mps 704 mmHg 26%
    09:00 +39°C° 0 mm 2 mps 704 mmHg 21%
    10:00 +41°C° 0 mm 2 mps 704 mmHg 18%
    11:00 +42°C° 0 mm 2 mps 704 mmHg 15%
    12:00 +45°C° 0 mm 2 mps 704 mmHg 12%
    13:00 +45°C° 0 mm 3 mps 703 mmHg 12%
    14:00 +47°C° 0 mm 4 mps 703 mmHg 11%
    15:00 +47°C° 0 mm 4 mps 702 mmHg 11%
    16:00 +46°C° 0 mm 5 mps 702 mmHg 13%
    17:00 +43°C° 0 mm 5 mps 702 mmHg 14%
    18:00 +42°C° 0 mm 5 mps 703 mmHg 15%
    19:00 +40°C° 0 mm 3 mps 703 mmHg 17%
    20:00 +39°C° 0 mm 2 mps 703 mmHg 18%
    21:00 +37°C° 0 mm 1 mps 703 mmHg 19%
    22:00 +37°C° 0 mm 1 mps 703 mmHg 20%
    23:00 +37°C° 0 mm 2 mps 703 mmHg 20%

    Mañana, 26 Junio, Miércoles

    Tiempo Temperatura Precipitaciones Viento Presión Humedad
    00:00 +37°C° 0 mm 2 mps 703 mmHg 20%
    01:00 +37°C° 0 mm 2 mps 702 mmHg 21%
    02:00 +36°C° 0 mm 2 mps 702 mmHg 21%
    03:00 +36°C° 0 mm 2 mps 702 mmHg 21%
    04:00 +36°C° 0 mm 2 mps 702 mmHg 22%
    05:00 +35°C° 0 mm 2 mps 703 mmHg 22%
    06:00 +35°C° 0 mm 2 mps 703 mmHg 22%
    07:00 +37°C° 0 mm 3 mps 703 mmHg 19%
    08:00 +40°C° 0 mm 3 mps 704 mmHg 16%
    09:00 +43°C° 0 mm 3 mps 704 mmHg 13%
    10:00 +46°C° 0 mm 5 mps 703 mmHg 11%
    11:00 +47°C° 0 mm 6 mps 703 mmHg 9%
    12:00 +50°C° 0 mm 7 mps 703 mmHg 8%
    13:00 +50°C° 0 mm 8 mps 702 mmHg 7%
    14:00 +50°C° 0 mm 8 mps 701 mmHg 7%
    15:00 +50°C° 0 mm 9 mps 701 mmHg 6%
    16:00 +49°C° 0 mm 8 mps 701 mmHg 7%
    17:00 +47°C° 0 mm 7 mps 701 mmHg 7%
    18:00 +46°C° 0 mm 7 mps 701 mmHg 8%
    19:00 +45°C° 0 mm 6 mps 701 mmHg 9%
    20:00 +42°C° 0 mm 5 mps 701 mmHg 11%
    21:00 +41°C° 0 mm 5 mps 702 mmHg 13%
    22:00 +38°C° 0 mm 4 mps 701 mmHg 18%
    23:00 +37°C° 0 mm 3 mps 701 mmHg 24%

    Pasado mañana, 27 Junio, Jueves

    Tiempo Temperatura Precipitaciones Viento Presión Humedad
    00:00 +35°C° 0 mm 2 mps 701 mmHg 29%
    01:00 +34°C° 0 mm 2 mps 700 mmHg 35%
    02:00 +32°C° 0 mm 2 mps 700 mmHg 40%
    03:00 +31°C° 0 mm 1 mps 700 mmHg 45%
    04:00 +31°C° 0 mm 1 mps 700 mmHg 51%
    05:00 +31°C° 0 mm 1 mps 700 mmHg 56%
    06:00 +30°C° 0 mm 1 mps 701 mmHg 61%
    07:00 +32°C° 0 mm 1 mps 701 mmHg 54%
    08:00 +34°C° 0 mm 1 mps 701 mmHg 47%
    09:00 +36°C° 0 mm 1 mps 701 mmHg 40%
    10:00 +39°C° 0 mm 1 mps 701 mmHg 32%
    11:00 +42°C° 0 mm 2 mps 701 mmHg 23%
    12:00 +45°C° 0 mm 2 mps 701 mmHg 15%
    13:00 +46°C° 0 mm 3 mps 700 mmHg 13%
    14:00 +47°C° 0 mm 4 mps 700 mmHg 11%
    15:00 +48°C° 0 mm 5 mps 699 mmHg 10%
    16:00 +47°C° 0 mm 5 mps 699 mmHg 9%
    17:00 +46°C° 0 mm 5 mps 699 mmHg 8%
    18:00 +46°C° 0 mm 5 mps 699 mmHg 8%
    19:00 +42°C° 0 mm 5 mps 700 mmHg 13%
    20:00 +40°C° 0 mm 4 mps 700 mmHg 19%
    21:00 +37°C° 0 mm 4 mps 700 mmHg 24%
    22:00 +36°C° 0 mm 4 mps 700 mmHg 31%
    23:00 +35°C° 0 mm 3 mps 700 mmHg 37%

    28 Junio, Viernes

    Tiempo Temperatura Precipitaciones Viento Presión Humedad
    00:00 +34°C° 0 mm 3 mps 700 mmHg 44%
    01:00 +33°C° 0 mm 3 mps 700 mmHg 53%
    02:00 +31°C° 0 mm 3 mps 699 mmHg 62%
    03:00 +29°C° 0 mm 3 mps 699 mmHg 71%
    04:00 +29°C° 0 mm 3 mps 699 mmHg 73%
    05:00 +29°C° 0 mm 3 mps 700 mmHg 74%
    06:00 +29°C° 0 mm 2 mps 700 mmHg 76%
    07:00 +31°C° 0 mm 3 mps 701 mmHg 62%
    08:00 +34°C° 0 mm 3 mps 701 mmHg 48%
    09:00 +36°C° 0 mm 3 mps 701 mmHg 34%
    10:00 +38°C° 0 mm 3 mps 701 mmHg 29%
    11:00 +40°C° 0 mm 2 mps 701 mmHg 23%
    12:00 +42°C° 0 mm 1 mps 700 mmHg 17%
    13:00 +43°C° 0 mm 2 mps 700 mmHg 16%
    14:00 +44°C° 0 mm 3 mps 699 mmHg 15%
    15:00 +45°C° 0 mm 4 mps 699 mmHg 13%
    16:00 +45°C° 0 mm 5 mps 699 mmHg 14%
    17:00 +45°C° 0 mm 5 mps 700 mmHg 15%
    18:00 +44°C° 0 mm 6 mps 700 mmHg 16%
    19:00 +41°C° 0 mm 5 mps 700 mmHg 25%
    20:00 +37°C° 0 mm 4 mps 701 mmHg 34%
    21:00 +35°C° 0 mm 4 mps 701 mmHg 43%
    22:00 +34°C° 0 mm 4 mps 701 mmHg 45%
    23:00 +34°C° 0 mm 4 mps 701 mmHg 46%

    29 Junio, Sábado

    Tiempo Temperatura Precipitaciones Viento Presión Humedad
    00:00 +33°C° 0 mm 5 mps 701 mmHg 48%
    01:00 +33°C° 0 mm 4 mps 701 mmHg 47%
    02:00 +32°C° 0 mm 4 mps 701 mmHg 46%
    03:00 +32°C° 0 mm 4 mps 701 mmHg 45%
    04:00 +30°C° 0 mm 4 mps 701 mmHg 46%
    05:00 +30°C° 0 mm 4 mps 701 mmHg 47%
    06:00 +30°C° 0 mm 4 mps 701 mmHg 48%
    07:00 +33°C° 0 mm 5 mps 702 mmHg 43%
    08:00 +35°C° 0 mm 5 mps 702 mmHg 38%
    09:00 +38°C° 0 mm 6 mps 702 mmHg 32%
    10:00 +40°C° 0 mm 4 mps 702 mmHg 27%
    11:00 +41°C° 0 mm 2 mps 702 mmHg 21%
    12:00 +42°C° 0 mm 1 mps 701 mmHg 16%
    13:00 +44°C° 0 mm 3 mps 701 mmHg 14%
    14:00 +46°C° 0 mm 5 mps 701 mmHg 13%
    15:00 +48°C° 0 mm 8 mps 700 mmHg 11%
    16:00 +46°C° 0 mm 8 mps 700 mmHg 12%
    17:00 +45°C° 0 mm 7 mps 701 mmHg 14%
    18:00 +44°C° 0 mm 7 mps 701 mmHg 15%
    19:00 +41°C° 0 mm 6 mps 701 mmHg 25%
    20:00 +37°C° 0 mm 5 mps 702 mmHg 35%
    21:00 +34°C° 0 mm 4 mps 702 mmHg 45%
    22:00 +34°C° 0 mm 3 mps 702 mmHg 47%
    23:00 +33°C° 0 mm 3 mps 702 mmHg 50%

    30 Junio, Domingo

    Tiempo Temperatura Precipitaciones Viento Presión Humedad
    00:00 +31°C° 0 mm 2 mps 702 mmHg 52%
    01:00 +31°C° 0 mm 2 mps 701 mmHg 53%
    02:00 +30°C° 0 mm 2 mps 701 mmHg 54%
    03:00 +30°C° 0 mm 1 mps 701 mmHg 55%
    04:00 +30°C° 0 mm 1 mps 701 mmHg 55%
    05:00 +30°C° 0 mm 2 mps 701 mmHg 55%
    06:00 +30°C° 0 mm 2 mps 701 mmHg 55%
    07:00 +33°C° 0 mm 3 mps 702 mmHg 47%
    08:00 +35°C° 0 mm 4 mps 702 mmHg 38%
    09:00 +37°C° 0 mm 5 mps 702 mmHg 30%
    10:00 +40°C° 0 mm 4 mps 702 mmHg 26%
    11:00 +42°C° 0 mm 3 mps 702 mmHg 21%
    12:00 +43°C° 0 mm 3 mps 702 mmHg 17%
    13:00 +44°C° 0 mm 3 mps 701 mmHg 14%
    14:00 +45°C° 0 mm 3 mps 701 mmHg 12%
    15:00 +46°C° 0 mm 3 mps 701 mmHg 10%
    16:00 +47°C° 0 mm 4 mps 701 mmHg 11%
    17:00 +46°C° 0 mm 5 mps 701 mmHg 12%
    18:00 +45°C° 0 mm 7 mps 701 mmHg 13%
    19:00 +41°C° 0 mm 6 mps 701 mmHg 21%
    20:00 +39°C° 0 mm 5 mps 701 mmHg 29%
    21:00 +36°C° 0 mm 4 mps 701 mmHg 37%
    22:00 +35°C° 0 mm 3 mps 701 mmHg 37%
    23:00 +35°C° 0 mm 3 mps 701 mmHg 37%
    Mostrar más